STARLINK-1886 (47169 NORAD) Tracking and Keplerian Element Data

This shows tracking and keplerian element data for the satellite.

Feedback or suggestion? Click here.




ElementValue
Catalog47169
NameSTARLINK-1886
Epoch Orbit180
Epoch Day99.91667824
Epoch Year2021
RAAN61.3631
Inclination53.0573
Eccentricity0.0004028
Argument of Perigee16.7055
Mean Anonmoly309.7045
Mean Motion15.19970825
Decay Rate-0.00171075
L11 47169U 20088AZ 21099.91667824 -.00171075 00000-0 -80187-2 0 9998
L22 47169 53.0573 61.3631 0004028 16.7055 309.7045 15.19970825 1804

Live tracking and technical data element details for STARLINK-1886 (NORAD 47169). STARLINK-1886 can be tracked NOW for your location showing map with azimuth and elevation plus other details from your city location.

Track the satellite on the map from your city or location and see movement details for azimuth, elevation, latitude, longitude, range, height, and movement on the map or in text.







IsCatalogInMostPopularTable: catalog: 47169, numindb: 55
Update: records affected: 1



GetName: 47169 STARLINK-1886

Hit Count: updated at: Sat, 10 Apr 2021 19:29:22 GMT